Greenville, MS

9:56 AM CST on January 24, 2017 (GMT -0600)
Mid Delta Regional

Weather History for KGLH - April, 2013

Change the Weather History Date:

Sunday, April 7, 2013

  Actual Average Record
Temperature  
Mean Temperature 63 °F 61 °F  
Max Temperature 74 °F 72 °F 91 °F (1986)
Min Temperature 52 °F 49 °F 32 °F (2007)
Degree Days  
Heating Degree Days 2 6  
Month to date heating degree days 78 45  
Since 1 July heating degree days 2556 2690  
Cooling Degree Days 0 1  
Month to date cooling degree days 0 7  
Year to date cooling degree days 12 29  
Growing Degree Days 13 (Base 50)    
Moisture  
Dew Point 54 °F    
Average Humidity 73    
Maximum Humidity 93    
Minimum Humidity 53    
Precipitation  
Precipitation 0.00 in 0.16 in 4.31 in (1938)
Month to date precipitation 0.43 1.26  
Year to date precipitation 17.64 15.80  
Sea Level Pressure  
Sea Level Pressure 30.01 in    
Wind  
Wind Speed 11 mph (South)    
Max Wind Speed 20 mph    
Max Gust Speed 23 mph    
Visibility 10 miles    
Events      
T = Trace of Precipitation, MM = Missing Value Source: NWS Daily Summary

Daily Weather History Graph

Daily Weather History Graph

Search for Another Location

Airport or City:

Trip Planner

Search our weather history database for the weather conditions in past years. The results will help you decide how hot, cold, wet, or windy it might be!

Date:

Astronomy

Apr. 07, 2013 Rise Set
Actual Time 6:43 AM CDT 7:29 PM CDT
Civil Twilight 6:18 AM CDT 7:54 PM CDT
Nautical Twilight 5:48 AM CDT 8:24 PM CDT
Astronomical Twilight 5:18 AM CDT 8:54 PM CDT
Moon 4:53 AM CDT (4/7) 5:07 PM CDT (4/7)
Length of Visible Light 13h 36m
Length of Day
12h 45m
Waning Crescent, 8% of the Moon is Illuminated
Apr 7
Waning Crescent
Apr 10
New
Apr 18
First Quarter
Apr 25
Full
May 2
Last Quarter

Hourly Weather History & Observations

Time (CDT) Temp. Dew Point Humidity Pressure Visibility Wind Dir Wind Speed Gust Speed Precip Events Conditions
12:53 AM 60.1 °F 52.0 °F 75% 30.04 in 10.0 mi SSW 10.4 mph - N/A   Clear
1:53 AM 55.0 °F 51.1 °F 86% 30.04 in 10.0 mi South 8.1 mph - N/A   Clear
2:53 AM 53.1 °F 50.0 °F 89% 30.03 in 10.0 mi SSW 6.9 mph - N/A   Clear
3:53 AM 54.0 °F 51.1 °F 90% 30.03 in 10.0 mi South 6.9 mph - N/A   Clear
4:53 AM 54.0 °F 51.1 °F 90% 30.03 in 10.0 mi South 6.9 mph - N/A   Clear
5:53 AM 53.1 °F 50.0 °F 89% 30.04 in 10.0 mi South 6.9 mph - N/A   Clear
6:53 AM 54.0 °F 51.1 °F 90% 30.06 in 10.0 mi South 4.6 mph - N/A   Partly Cloudy
7:53 AM 55.0 °F 52.0 °F 89% 30.08 in 10.0 mi SSE 6.9 mph - N/A   Clear
8:53 AM 61.0 °F 55.0 °F 81% 30.08 in 10.0 mi South 10.4 mph - N/A   Clear
9:53 AM 64.9 °F 57.0 °F 75% 30.08 in 10.0 mi South 15.0 mph - N/A   Clear
10:53 AM 69.1 °F 55.9 °F 63% 30.09 in 10.0 mi SSW 15.0 mph 23.0 mph N/A   Mostly Cloudy
11:53 AM 68.0 °F 55.0 °F 63% 30.07 in 10.0 mi SW 12.7 mph 20.7 mph N/A   Overcast
12:53 PM 70.0 °F 54.0 °F 57% 30.04 in 10.0 mi South 15.0 mph 21.9 mph N/A   Overcast
1:53 PM 70.0 °F 55.0 °F 59% 30.02 in 10.0 mi South 13.8 mph - N/A   Mostly Cloudy
2:53 PM 71.1 °F 55.0 °F 57% 30.01 in 10.0 mi South 17.3 mph - N/A   Mostly Cloudy
3:53 PM 73.0 °F 55.9 °F 55% 29.98 in 10.0 mi South 11.5 mph 23.0 mph N/A   Scattered Clouds
4:53 PM 73.9 °F 55.0 °F 52% 29.96 in 10.0 mi SSW 13.8 mph 20.7 mph N/A   Clear
5:53 PM 72.0 °F 55.0 °F 55% 29.95 in 10.0 mi South 16.1 mph - N/A   Scattered Clouds
6:53 PM 72.0 °F 54.0 °F 53% 29.93 in 10.0 mi SSE 11.5 mph - N/A   Clear
7:53 PM 66.9 °F 55.0 °F 66% 29.94 in 10.0 mi SSE 9.2 mph - N/A   Clear
8:53 PM 63.0 °F 55.9 °F 78% 29.95 in 10.0 mi SE 8.1 mph - N/A   Partly Cloudy
9:53 PM 66.0 °F 55.0 °F 68% 29.95 in 10.0 mi SSE 9.2 mph - N/A   Mostly Cloudy
10:53 PM 64.9 °F 55.0 °F 70% 29.95 in 10.0 mi SSE 10.4 mph - N/A   Partly Cloudy
11:53 PM 64.0 °F 55.0 °F 73% 29.94 in 10.0 mi South 10.4 mph - N/A   Scattered Clouds